Regional Weather Roundup
Issued by NWS

Home | Current Version | Previous Version | Graphics & Text | Print | Product List | Glossary Off
Versions: 1 2 3 4 5 6 7 8 9 10 11 12 13 14 15 16 17 18 19 20 21 22 23 24 25 26 27

000
ASUS45 KBOU 191107
RWRCO

WEATHER ROUNDUP FOR COLORADO
NATIONAL WEATHER SERVICE DENVER/BOULDER CO
400 AM MST THU JAN 19 2017

NOTE: "FAIR" INDICATES FEW OR NO CLOUDS BELOW 12000 FEET WITH NO
SIGNIFICANT WEATHER AND/OR OBSTRUCTIONS TO VISIBILITY.

COZ001>005-013-030-031-191200-
...NORTHWEST COLORADO...

CITY           SKY/WX    TMP DP  RH WIND       PRES   REMARKS
CRAIG          FAIR       1  -5  75 CALM      29.89F
HAYDEN         FAIR      12   7  79 E14       29.87F WCI  -3
MEEKER         FAIR      14   9  80 E5        29.87F WCI   6
MOUNT WERNER   NOT AVBL
STEAMBOAT SPGS FAIR       7   5  89 CALM      29.89F
WALDEN           N/A    N/A N/A N/A CALM      29.87F
$$

COZ006>008-011-191200-
...WEST CENTRAL VALLEYS...

CITY           SKY/WX    TMP DP  RH WIND       PRES   REMARKS
GRAND JUNCTION FAIR      26  24  92 E7        29.91F WCI  18
MONTROSE       FAIR      26  21  81 SE8       29.95F WCI  18
EAGLE          FAIR       8   6  92 CALM      29.98F
RIFLE          FAIR      22  19  89 CALM      29.93F
DELTA          FAIR      28  24  85 E5        29.95F WCI  23
NUCLA          FAIR      28  21  74 E10       29.95F WCI  19
$$

COZ017>023-064>068-191200-
...SOUTHWEST COLORADO...

CITY           SKY/WX    TMP DP  RH WIND       PRES   REMARKS
DURANGO        FAIR      23  20  88 N6        29.92S WCI  16
CORTEZ         FAIR      21  20  96 CALM      29.94F
PAGOSA SPRINGS CLOUDY    30  29  98 CALM      29.92S
TELLURIDE      FAIR      20  12  72 CALM      29.93F
WOLF CREEK PAS   N/A     14  14 100 SW9       29.93F WCI   2
$$

COZ009-010-012-014-032>034-037-058>063-191200-
...CENTRAL COLORADO...

CITY           SKY/WX    TMP DP  RH WIND       PRES   REMARKS
ASPEN          FAIR       9   5  84 S8        29.89F WCI  -3
BUENA VISTA    FAIR       8   5  87 W5        29.81F WCI   0
COPPER MTN     FAIR      19   9  63 MISG      29.89F
BERTHOUD PASS  NOT AVBL
COTTONWOOD PAS FAIR      32  10  40 W13G25    29.80F WCI  22
GUNNISON       LGT SNOW  -4  -8  83 NE5       30.00S FOG     WCI -15
KREMMLING      FLURRIES   9   3  78 CALM      29.98F
LEADVILLE      FAIR       9   3  77 NE10      29.85F WCI  -5
MONARCH PASS   FAIR      12  10  92 MISG      29.94F
SALIDA         FAIR      25  18  74 N8        29.88S WCI  16
SUNLIGHT       FAIR      16  12  86 SW12      29.93S WCI   3
WILKERSON PASS FAIR      30   1  29 N14G24    29.82F WCI  20
$$

COZ069>075-191200-
...SAN LUIS VALLEY/SANGRE DE CRISTO MOUNTAINS...

CITY           SKY/WX    TMP DP  RH WIND       PRES   REMARKS
ALAMOSA        CLOUDY    21  20  96 W5        29.90F WCI  15
LA VETA PASS   FOG       16  12  86 NE41G49   29.74F VSB 1   WCI  -7
SAGUACHE       CLOUDY    14  14 100 NW8       29.90F FOG     WCI   3
$$

COZ035-036-038>040-191200-
...NORTHERN COLORADO FRONT RANGE...

CITY           SKY/WX    TMP DP  RH WIND       PRES   REMARKS
DENVER INTL AP FAIR      30  14  51 S6        29.63F WCI  24
DMNS CITY PARK   N/A     28  14  54 E8        29.63F WCI  20
AURORA         PTCLDY    31  14  49 S9        29.64F WCI  22
FRONT RANGE AP FAIR      28  19  69 SE8       29.64F WCI  20
ERIE MUNI ARPT FAIR      20  17  86 CALM      29.63F
BOULDER MUN AP FAIR      30  19  64 SW5       29.62F WCI  25
CENTENNIAL     FAIR      28  12  51 S5        29.63F WCI  23
BROOMFIELD     FAIR      37  18  44 CALM      29.63F
FORT COLLINS   FAIR      27  19  74 CALM      29.63F
LONGMONT       FAIR      28  19  69 W5        29.65F WCI  23
$$

COZ041-046-047-076>085-087-088-191200-
...PIKES PEAK/PALMER DIVIDE AND SOUTHERN FOOTHILLS...

CITY           SKY/WX    TMP DP  RH WIND       PRES   REMARKS
COLO. SPRINGS  FAIR      33   9  36 N12       29.64F WCI  24
A. F. ACADEMY  FAIR      26  11  54 N9        29.63F WCI  16
SCHRIEVER AFB  NOT AVBL
ELLICOTT       FAIR     N/A N/A N/A NE12      29.62F
FALCON         FAIR      33   8  33 CALM      29.66F
FORT CARSON    CLEAR     36  10  35 S8        29.65F
LIMON          FAIR      22  15  75 NW8       29.64F WCI  12
MONUMENT HILL  FAIR      25   9  50 W7        29.67F WCI  17
TRINIDAD       FAIR      20  12  71 W10       29.64F WCI   9
$$

COZ042>045-048>051-090-091-191200-
...NORTHEAST COLORADO...

CITY           SKY/WX    TMP DP  RH WIND       PRES   REMARKS
GREELEY ARPT   FAIR      20  19  96 SE3       29.65F
AKRON          FAIR      26  18  71 W9        29.62F WCI  17
BURLINGTON     FAIR      26  23  88 W9        29.62F WCI  17
WRAY           NOT AVBL
STERLING       FAIR      18  16  93 SW6       29.64F WCI   9
HOLYOKE        FAIR      25  19  80 NW7       29.63F WCI  17
FORT MORGAN    FAIR      20  18  91 N5        29.65S WCI  14
$$

COZ086-089-092>099-191200-
...SOUTHEAST COLORADO...

CITY           SKY/WX    TMP DP  RH WIND       PRES   REMARKS
PUEBLO         FAIR      25  21  85 CALM      29.63F
LA JUNTA       FAIR      20  17  88 W10       29.63F WCI   9
LAMAR          FAIR      19  16  88 SW7       29.62S WCI  10
SPRINGFIELD      N/A     30  23  75 NW14      29.59F WCI  19
$$




USA.gov is the U.S. government's official web portal to all federal, state and local government web resources and services.